OAL188 LGAL-LGAV

Flight info

Callsign OAL188
Flight time 0h 49m
Altitude 24000
Route LMO T162 NEVRA
Aircraft B736/M-SDE2E3FGHIRWXY/LB1

Departure

Time 2026-05-03 22:28
Airport Alexandroupoli Democritus Airport (LGAL)

Arrival

Time 2026-05-03 23:17
Airport Athens Eleftherios Venizelos International Airport (LGAV)
Time Latitude Longitude Altitude Speed Heading
2026-05-03 21:59 40.85579 25.94487 20 ft 0 kts 341°
2026-05-03 22:19 40.85566 25.94492 20 ft 2 kts 341°
2026-05-03 22:19 40.85551 25.94499 22 ft 2 kts 341°
2026-05-03 22:19 40.85535 25.94506 23 ft 2 kts 337°
2026-05-03 22:20 40.85521 25.94518 20 ft 2 kts 301°
2026-05-03 22:20 40.85516 25.94535 20 ft 1 kts 265°
2026-05-03 22:24 40.85514 25.94516 20 ft 4 kts 257°
2026-05-03 22:24 40.85474 25.94468 20 ft 12 kts 207°
2026-05-03 22:24 40.85399 25.94416 19 ft 12 kts 206°
2026-05-03 22:25 40.85328 25.94368 19 ft 0 kts 208°
2026-05-03 22:25 40.85322 25.94363 20 ft 3 kts 208°
2026-05-03 22:25 40.85295 25.94344 19 ft 7 kts 207°
2026-05-03 22:26 40.85269 25.94285 18 ft 8 kts 273°
2026-05-03 22:26 40.85286 25.94214 18 ft 8 kts 283°
2026-05-03 22:26 40.85258 25.94164 17 ft 8 kts 177°
2026-05-03 22:26 40.85244 25.94188 17 ft 0 kts 88°
2026-05-03 22:27 40.85245 25.94204 17 ft 3 kts 82°
2026-05-03 22:27 40.85249 25.94222 17 ft 0 kts 73°
2026-05-03 22:27 40.85301 25.94442 20 ft 68 kts 73°
2026-05-03 22:27 40.85524 25.95404 31 ft 147 kts 73°
2026-05-03 22:28 40.85828 25.96783 697 ft 162 kts 73°
2026-05-03 22:28 40.86005 25.98317 1659 ft 170 kts 90°
2026-05-03 22:28 40.85484 25.99757 2670 ft 194 kts 127°
2026-05-03 22:28 40.84195 26.00693 3255 ft 231 kts 165°
2026-05-03 22:29 40.82574 26.00387 4049 ft 246 kts 208°
2026-05-03 22:29 40.81404 25.98780 4954 ft 245 kts 252°
2026-05-03 22:29 40.81016 25.96634 6034 ft 240 kts 262°
2026-05-03 22:29 40.80453 25.94524 7054 ft 245 kts 252°
2026-05-03 22:30 40.79864 25.92458 8074 ft 243 kts 255°
2026-05-03 22:30 40.79183 25.90374 9066 ft 250 kts 234°
2026-05-03 22:30 40.77791 25.88894 9737 ft 271 kts 210°
2026-05-03 22:30 40.76016 25.87699 10173 ft 296 kts 207°
2026-05-03 22:31 40.74128 25.86467 10582 ft 322 kts 207°
2026-05-03 22:31 40.72064 25.85021 10871 ft 349 kts 210°
2026-05-03 22:31 40.69936 25.83395 11606 ft 358 kts 212°
2026-05-03 22:31 40.67782 25.81693 12525 ft 362 kts 212°
2026-05-03 22:32 40.65602 25.79992 13463 ft 366 kts 211°
2026-05-03 22:32 40.63379 25.78296 14277 ft 372 kts 210°
2026-05-03 22:32 40.61117 25.76603 15078 ft 376 kts 210°
2026-05-03 22:32 40.58828 25.74902 15901 ft 379 kts 210°
2026-05-03 22:33 40.56514 25.73186 16680 ft 384 kts 210°
2026-05-03 22:33 40.54188 25.71424 17499 ft 387 kts 210°
2026-05-03 22:33 40.51855 25.69619 18338 ft 391 kts 210°
2026-05-03 22:33 40.49505 25.67790 19111 ft 391 kts 210°
2026-05-03 22:34 40.47167 25.65969 19976 ft 392 kts 210°
2026-05-03 22:34 40.44801 25.64131 20643 ft 396 kts 210°
2026-05-03 22:34 40.42422 25.62289 21383 ft 398 kts 210°
2026-05-03 22:34 40.40031 25.60441 22158 ft 400 kts 210°
2026-05-03 22:35 40.37625 25.58585 22951 ft 401 kts 210°
2026-05-03 22:35 40.35211 25.56725 23656 ft 404 kts 210°
2026-05-03 22:35 40.33600 25.55485 24010 ft 406 kts 210°
2026-05-03 22:35 40.30298 25.52948 24104 ft 415 kts 210°
2026-05-03 22:36 40.27849 25.51067 24120 ft 413 kts 210°
2026-05-03 22:36 40.25379 25.49171 24110 ft 408 kts 210°
2026-05-03 22:36 40.22935 25.47296 24120 ft 408 kts 210°
2026-05-03 22:36 40.20476 25.45411 24131 ft 409 kts 210°
2026-05-03 22:37 40.18815 25.44139 24134 ft 410 kts 210°
2026-05-03 22:37 40.16352 25.42255 24125 ft 410 kts 210°
2026-05-03 22:37 40.13890 25.40372 24121 ft 411 kts 210°
2026-05-03 22:37 40.11422 25.38486 24114 ft 411 kts 210°
2026-05-03 22:38 40.08951 25.36600 24120 ft 411 kts 210°
2026-05-03 22:38 40.06483 25.34718 24112 ft 411 kts 210°
2026-05-03 22:38 40.04049 25.32862 24107 ft 410 kts 210°
2026-05-03 22:38 40.01580 25.30982 24106 ft 410 kts 210°
2026-05-03 22:39 39.99120 25.29110 24108 ft 409 kts 210°
2026-05-03 22:39 39.96660 25.27239 24102 ft 409 kts 210°
2026-05-03 22:39 39.94204 25.25374 24103 ft 408 kts 210°
2026-05-03 22:39 39.91740 25.23537 24101 ft 408 kts 207°
2026-05-03 22:40 39.89182 25.21933 24099 ft 408 kts 202°
2026-05-03 22:40 39.86518 25.20624 24105 ft 408 kts 198°
2026-05-03 22:40 39.83791 25.19624 24106 ft 408 kts 193°
2026-05-03 22:40 39.81017 25.18831 24113 ft 408 kts 192°
2026-05-03 22:41 39.78244 25.18049 24113 ft 408 kts 193°
2026-05-03 22:41 39.75483 25.17176 24112 ft 409 kts 194°
2026-05-03 22:41 39.72740 25.16198 24115 ft 409 kts 196°
2026-05-03 22:41 39.70015 25.15140 24119 ft 409 kts 197°
2026-05-03 22:42 39.67333 25.14057 24126 ft 409 kts 197°
2026-05-03 22:42 39.64612 25.12960 24123 ft 409 kts 197°
2026-05-03 22:42 39.61888 25.11883 24121 ft 409 kts 197°
2026-05-03 22:42 39.59159 25.10818 24125 ft 409 kts 197°
2026-05-03 22:43 39.56433 25.09755 24133 ft 409 kts 197°
2026-05-03 22:43 39.53705 25.08684 24130 ft 409 kts 197°
2026-05-03 22:43 39.50975 25.07609 24127 ft 409 kts 197°
2026-05-03 22:43 39.48254 25.06537 24127 ft 409 kts 197°
2026-05-03 22:44 39.45533 25.05466 24133 ft 408 kts 197°
2026-05-03 22:44 39.42815 25.04398 24127 ft 408 kts 197°
2026-05-03 22:44 39.40096 25.03331 24125 ft 408 kts 197°
2026-05-03 22:44 39.37383 25.02268 24123 ft 408 kts 197°
2026-05-03 22:45 39.34665 25.01203 24131 ft 407 kts 197°
2026-05-03 22:45 39.31954 25.00142 24128 ft 407 kts 197°
2026-05-03 22:45 39.29285 24.99098 24127 ft 406 kts 197°
2026-05-03 22:45 39.26578 24.98039 24127 ft 406 kts 197°
2026-05-03 22:46 39.23872 24.96983 24131 ft 405 kts 197°
2026-05-03 22:46 39.21177 24.95932 24125 ft 405 kts 197°
2026-05-03 22:46 39.18474 24.94881 24122 ft 405 kts 197°
2026-05-03 22:46 39.15774 24.93835 24123 ft 405 kts 198°
2026-05-03 22:47 39.13070 24.92789 24131 ft 404 kts 198°
2026-05-03 22:47 39.10375 24.91747 24125 ft 405 kts 198°
2026-05-03 22:47 39.07680 24.90703 24124 ft 405 kts 198°
2026-05-03 22:47 39.05021 24.89672 24126 ft 405 kts 198°
2026-05-03 22:48 39.02322 24.88625 24128 ft 404 kts 198°
2026-05-03 22:48 38.99625 24.87577 24125 ft 404 kts 198°
2026-05-03 22:48 38.96930 24.86532 24124 ft 404 kts 198°
2026-05-03 22:48 38.94238 24.85489 24124 ft 404 kts 198°
2026-05-03 22:49 38.91542 24.84445 24131 ft 404 kts 198°
2026-05-03 22:49 38.88847 24.83403 24125 ft 404 kts 198°
2026-05-03 22:49 38.86145 24.82359 24124 ft 404 kts 198°
2026-05-03 22:49 38.83487 24.81334 24125 ft 404 kts 198°
2026-05-03 22:50 38.80793 24.80301 24128 ft 404 kts 198°
2026-05-03 22:50 38.78097 24.79270 24126 ft 403 kts 198°
2026-05-03 22:50 38.75406 24.78242 24123 ft 403 kts 198°
2026-05-03 22:50 38.72716 24.77215 24127 ft 404 kts 198°
2026-05-03 22:51 38.70020 24.76184 24128 ft 403 kts 198°
2026-05-03 22:51 38.67328 24.75156 24121 ft 404 kts 198°
2026-05-03 22:51 38.64634 24.74128 24126 ft 404 kts 198°
2026-05-03 22:51 38.61944 24.73102 24129 ft 404 kts 198°
2026-05-03 22:52 38.59251 24.72076 24128 ft 404 kts 198°
2026-05-03 22:52 38.56558 24.71052 24130 ft 404 kts 198°
2026-05-03 22:52 38.53862 24.70026 24126 ft 404 kts 199°
2026-05-03 22:52 38.51203 24.69015 24130 ft 404 kts 198°
2026-05-03 22:53 38.48506 24.67990 24133 ft 404 kts 199°
2026-05-03 22:53 38.45811 24.66966 24126 ft 404 kts 199°
2026-05-03 22:53 38.43113 24.65942 24128 ft 403 kts 199°
2026-05-03 22:53 38.40419 24.64921 24133 ft 403 kts 198°
2026-05-03 22:54 38.37727 24.63902 24133 ft 403 kts 199°
2026-05-03 22:54 38.35041 24.62886 24130 ft 402 kts 199°
2026-05-03 22:54 38.32357 24.61871 24128 ft 402 kts 199°
2026-05-03 22:54 38.29710 24.60870 24131 ft 402 kts 198°
2026-05-03 22:55 38.27031 24.59859 24132 ft 401 kts 198°
2026-05-03 22:55 38.24357 24.58848 24128 ft 401 kts 199°
2026-05-03 22:55 38.21679 24.57838 24132 ft 401 kts 199°
2026-05-03 22:55 38.19003 24.56831 24137 ft 400 kts 199°
2026-05-03 22:56 38.16331 24.55824 24143 ft 400 kts 199°
2026-05-03 22:56 38.13675 24.54760 24137 ft 401 kts 200°
2026-05-03 22:56 38.11042 24.53631 24128 ft 394 kts 201°
2026-05-03 22:56 38.08465 24.52496 24137 ft 392 kts 202°
2026-05-03 22:57 38.05895 24.51358 24130 ft 389 kts 202°
2026-05-03 22:57 38.03342 24.50233 24130 ft 388 kts 202°
2026-05-03 22:57 38.00822 24.49133 23758 ft 387 kts 201°
2026-05-03 22:57 37.98294 24.48042 23242 ft 383 kts 201°
2026-05-03 22:58 37.95788 24.46964 22760 ft 377 kts 201°
2026-05-03 22:58 37.93314 24.45902 22245 ft 372 kts 201°
2026-05-03 22:58 37.90864 24.44854 21721 ft 369 kts 201°
2026-05-03 22:58 37.88445 24.43819 21225 ft 366 kts 202°
2026-05-03 22:59 37.86040 24.42791 20729 ft 363 kts 201°
2026-05-03 22:59 37.83657 24.41771 20238 ft 361 kts 201°
2026-05-03 22:59 37.81274 24.40752 19755 ft 359 kts 202°
2026-05-03 22:59 37.78941 24.39757 19285 ft 358 kts 202°
2026-05-03 23:00 37.76582 24.38751 18812 ft 358 kts 201°
2026-05-03 23:00 37.74209 24.37737 18307 ft 361 kts 202°
2026-05-03 23:00 37.71814 24.36714 17759 ft 364 kts 201°
2026-05-03 23:00 37.69407 24.35687 17256 ft 366 kts 202°
2026-05-03 23:01 37.67002 24.34663 16745 ft 364 kts 201°
2026-05-03 23:01 37.64611 24.33647 16249 ft 361 kts 201°
2026-05-03 23:01 37.62236 24.32638 15762 ft 359 kts 201°
2026-05-03 23:01 37.59872 24.31634 15300 ft 357 kts 201°
2026-05-03 23:02 37.57663 24.30286 14737 ft 351 kts 224°
2026-05-03 23:02 37.56379 24.27839 14732 ft 325 kts 252°
2026-05-03 23:02 37.55610 24.25135 14079 ft 333 kts 261°
2026-05-03 23:02 37.55291 24.22261 13675 ft 332 kts 270°
2026-05-03 23:03 37.55208 24.19372 13172 ft 334 kts 273°
2026-05-03 23:03 37.55182 24.16461 12695 ft 330 kts 274°
2026-05-03 23:03 37.55151 24.13576 12222 ft 327 kts 274°
2026-05-03 23:03 37.55101 24.10718 11769 ft 325 kts 273°
2026-05-03 23:04 37.55036 24.07887 11322 ft 322 kts 273°
2026-05-03 23:04 37.54960 24.05076 10879 ft 320 kts 273°
2026-05-03 23:04 37.54877 24.02290 10631 ft 312 kts 273°
2026-05-03 23:04 37.54791 23.99598 10479 ft 301 kts 273°
2026-05-03 23:05 37.54707 23.97008 10342 ft 291 kts 274°
2026-05-03 23:05 37.54625 23.94496 10222 ft 281 kts 274°
2026-05-03 23:05 37.54548 23.92093 10053 ft 274 kts 274°
2026-05-03 23:05 37.54474 23.89695 9710 ft 273 kts 274°
2026-05-03 23:06 37.54400 23.87319 9424 ft 270 kts 274°
2026-05-03 23:06 37.54325 23.84957 9109 ft 269 kts 274°
2026-05-03 23:06 37.54249 23.82608 8840 ft 266 kts 274°
2026-05-03 23:06 37.54174 23.80284 8543 ft 264 kts 274°
2026-05-03 23:07 37.54097 23.77983 8271 ft 262 kts 274°
2026-05-03 23:07 37.54021 23.75666 7853 ft 266 kts 274°
2026-05-03 23:07 37.53943 23.73357 7611 ft 262 kts 274°
2026-05-03 23:07 37.53932 23.71067 7299 ft 258 kts 281°
2026-05-03 23:08 37.54485 23.69051 7036 ft 241 kts 317°
2026-05-03 23:08 37.55854 23.68057 7038 ft 227 kts 353°
2026-05-03 23:08 37.57353 23.68454 6895 ft 224 kts 29°
2026-05-03 23:08 37.58687 23.69527 6489 ft 229 kts 27°
2026-05-03 23:09 37.60112 23.70378 6200 ft 226 kts 20°
2026-05-03 23:09 37.61587 23.71057 5904 ft 225 kts 18°
2026-05-03 23:09 37.63073 23.71660 5631 ft 223 kts 16°
2026-05-03 23:09 37.64529 23.72202 5564 ft 212 kts 15°
2026-05-03 23:10 37.65929 23.72696 5446 ft 205 kts 14°
2026-05-03 23:10 37.67275 23.73159 5358 ft 196 kts 14°
2026-05-03 23:10 37.68550 23.73592 5272 ft 188 kts 14°
2026-05-03 23:10 37.69788 23.74011 5194 ft 180 kts 14°
2026-05-03 23:11 37.71000 23.74432 5139 ft 182 kts 18°
2026-05-03 23:11 37.72167 23.75080 5042 ft 184 kts 26°
2026-05-03 23:11 37.73260 23.75943 4775 ft 186 kts 32°
2026-05-03 23:11 37.74287 23.76914 4558 ft 183 kts 35°
2026-05-03 23:12 37.75279 23.77927 4338 ft 182 kts 35°
2026-05-03 23:12 37.76271 23.78918 4123 ft 181 kts 34°
2026-05-03 23:12 37.77261 23.79880 3906 ft 182 kts 34°
2026-05-03 23:12 37.78266 23.80847 3749 ft 178 kts 33°
2026-05-03 23:13 37.79246 23.81786 3651 ft 182 kts 33°
2026-05-03 23:13 37.80267 23.82761 3474 ft 178 kts 33°
2026-05-03 23:13 37.81261 23.83714 3155 ft 176 kts 33°
2026-05-03 23:13 37.82209 23.84623 2906 ft 168 kts 32°
2026-05-03 23:14 37.83116 23.85491 2700 ft 162 kts 32°
2026-05-03 23:14 37.84008 23.86343 2502 ft 160 kts 32°
2026-05-03 23:14 37.84893 23.87188 2259 ft 154 kts 32°
2026-05-03 23:14 37.85695 23.87959 2074 ft 134 kts 32°
2026-05-03 23:15 37.86435 23.88663 1867 ft 135 kts 32°
2026-05-03 23:15 37.87201 23.89394 1703 ft 139 kts 32°
2026-05-03 23:15 37.87924 23.90089 1516 ft 121 kts 31°
2026-05-03 23:15 37.88600 23.90732 1298 ft 122 kts 32°
2026-05-03 23:16 37.89294 23.91396 1136 ft 128 kts 32°
2026-05-03 23:16 37.90011 23.92083 941 ft 131 kts 32°
2026-05-03 23:16 37.90740 23.92777 749 ft 132 kts 32°
2026-05-03 23:16 37.91475 23.93474 595 ft 131 kts 35°
2026-05-03 23:17 37.92202 23.94184 460 ft 132 kts 37°
2026-05-03 23:17 37.92954 23.94887 306 ft 133 kts 36°
2026-05-03 23:17 37.93616 23.95525 280 ft 99 kts 37°
2026-05-03 23:17 37.93850 23.95700 278 ft 7 kts 12°
2026-05-03 23:18 37.93898 23.95712 280 ft 7 kts 10°
2026-05-03 23:18 37.93946 23.95722 284 ft 7 kts
2026-05-03 23:18 37.93992 23.95729 288 ft 7 kts
2026-05-03 23:18 37.94035 23.95713 292 ft 7 kts 318°
2026-05-03 23:19 37.94065 23.95666 296 ft 7 kts 307°
2026-05-03 23:19 37.94095 23.95613 298 ft 8 kts 296°
2026-05-03 23:19 37.94084 23.95552 300 ft 8 kts 224°
2026-05-03 23:19 37.94036 23.95504 300 ft 16 kts 217°
2026-05-03 23:20 37.93941 23.95413 300 ft 13 kts 217°
2026-05-03 23:20 37.93890 23.95328 299 ft 12 kts 247°
2026-05-03 23:20 37.93862 23.95241 300 ft 9 kts 247°
2026-05-03 23:20 37.93841 23.95179 301 ft 6 kts 272°
2026-05-03 23:21 37.93867 23.95135 300 ft 6 kts 306°
2026-05-03 23:21 37.93888 23.95101 300 ft 0 kts 308°